When you browse on this site, cookies collect data to enhance your experience and personalize the content and advertising you see.
Visit our Privacy Policy to learn more. By continuing to use the site, you agree to this use of cookies and data.
  • în România
  • Lista ţărilor
  • Pe 7 zile
  • Temperatura apei
  • Hartă satelitară
  • Meteo pe hartă
  • Widget-uri
  • user-avatar
    Intrare

    Meteo pe oră la Abenra

    Astăzi, 20 Mai, Luni

    Timp Temperatura Precipitaţii Vânt Presiune Umiditate
    00:00 +13°C° 0 mm 3 m/s 751 mmHg 96%
    01:00 +14°C° 0 mm 2 m/s 751 mmHg 97%
    02:00 +13°C° 0 mm 2 m/s 751 mmHg 97%
    03:00 +13°C° 0 mm 2 m/s 751 mmHg 97%
    04:00 +13°C° 0 mm 1 m/s 750 mmHg 98%
    05:00 +14°C° 0 mm 2 m/s 750 mmHg 96%
    06:00 +15°C° 0 mm 2 m/s 751 mmHg 94%
    07:00 +15°C° 0 mm 2 m/s 751 mmHg 92%
    08:00 +16°C° 0 mm 3 m/s 751 mmHg 89%
    09:00 +17°C° 0 mm 3 m/s 751 mmHg 86%
    10:00 +18°C° 0 mm 3 m/s 751 mmHg 83%
    11:00 +18°C° 0 mm 3 m/s 751 mmHg 81%
    12:00 +19°C° 0 mm 3 m/s 751 mmHg 79%
    13:00 +20°C° 0 mm 2 m/s 751 mmHg 76%
    14:00 +20°C° 0.1 mm 2 m/s 751 mmHg 76%
    15:00 +20°C° 0.1 mm 2 m/s 751 mmHg 75%
    16:00 +20°C° 0.1 mm 2 m/s 750 mmHg 74%
    17:00 +20°C° 0 mm 2 m/s 750 mmHg 77%
    18:00 +19°C° 0 mm 2 m/s 750 mmHg 81%
    19:00 +19°C° 0 mm 2 m/s 750 mmHg 84%
    20:00 +18°C° 0 mm 2 m/s 750 mmHg 87%
    21:00 +16°C° 0 mm 2 m/s 750 mmHg 90%
    22:00 +15°C° 0 mm 2 m/s 751 mmHg 93%
    23:00 +14°C° 0 mm 3 m/s 751 mmHg 94%

    Mâine, 21 Mai, Marţi

    Timp Temperatura Precipitaţii Vânt Presiune Umiditate
    00:00 +14°C° 0 mm 3 m/s 750 mmHg 94%
    01:00 +14°C° 0 mm 3 m/s 750 mmHg 95%
    02:00 +13°C° 0 mm 3 m/s 750 mmHg 96%
    03:00 +13°C° 0 mm 4 m/s 750 mmHg 96%
    04:00 +13°C° 0 mm 4 m/s 750 mmHg 97%
    05:00 +13°C° 0 mm 4 m/s 750 mmHg 95%
    06:00 +14°C° 0 mm 4 m/s 750 mmHg 94%
    07:00 +14°C° 0 mm 4 m/s 750 mmHg 92%
    08:00 +15°C° 0 mm 4 m/s 750 mmHg 89%
    09:00 +17°C° 0 mm 4 m/s 751 mmHg 86%
    10:00 +18°C° 0 mm 4 m/s 751 mmHg 83%
    11:00 +19°C° 0.3 mm 4 m/s 751 mmHg 84%
    12:00 +19°C° 0.3 mm 4 m/s 751 mmHg 84%
    13:00 +20°C° 0.3 mm 4 m/s 751 mmHg 84%
    14:00 +20°C° 1.2 mm 4 m/s 751 mmHg 84%
    15:00 +20°C° 1.2 mm 4 m/s 751 mmHg 85%
    16:00 +20°C° 1.2 mm 4 m/s 751 mmHg 86%
    17:00 +19°C° 0.8 mm 5 m/s 751 mmHg 88%
    18:00 +17°C° 0.8 mm 5 m/s 751 mmHg 91%
    19:00 +16°C° 0.8 mm 5 m/s 751 mmHg 93%
    20:00 +15°C° 0.1 mm 5 m/s 751 mmHg 94%
    21:00 +14°C° 0.1 mm 5 m/s 752 mmHg 95%
    22:00 +13°C° 0.1 mm 5 m/s 752 mmHg 96%
    23:00 +12°C° 0.1 mm 5 m/s 752 mmHg 96%

    Poimâine, 22 Mai, Miercuri

    Timp Temperatura Precipitaţii Vânt Presiune Umiditate
    00:00 +10°C° 0.1 mm 5 m/s 752 mmHg 96%
    01:00 +10°C° 0.1 mm 5 m/s 752 mmHg 95%
    02:00 +9°C° 0.1 mm 5 m/s 752 mmHg 95%
    03:00 +9°C° 0.1 mm 5 m/s 752 mmHg 95%
    04:00 +9°C° 0.1 mm 6 m/s 752 mmHg 94%
    05:00 +9°C° 0.1 mm 6 m/s 753 mmHg 93%
    06:00 +9°C° 0.1 mm 6 m/s 753 mmHg 92%
    07:00 +10°C° 0.1 mm 7 m/s 754 mmHg 91%
    08:00 +11°C° 0 mm 7 m/s 754 mmHg 86%
    09:00 +12°C° 0 mm 7 m/s 755 mmHg 82%
    10:00 +14°C° 0 mm 7 m/s 755 mmHg 78%
    11:00 +13°C° 0 mm 8 m/s 756 mmHg 76%
    12:00 +13°C° 0 mm 8 m/s 756 mmHg 74%
    13:00 +15°C° 0 mm 8 m/s 756 mmHg 72%
    14:00 +13°C° 0 mm 8 m/s 756 mmHg 71%
    15:00 +14°C° 0 mm 7 m/s 757 mmHg 70%
    16:00 +14°C° 0 mm 7 m/s 757 mmHg 69%
    17:00 +12°C° 0 mm 7 m/s 757 mmHg 71%
    18:00 +11°C° 0 mm 6 m/s 757 mmHg 73%
    19:00 +10°C° 0 mm 6 m/s 757 mmHg 76%
    20:00 +9°C° 0 mm 5 m/s 758 mmHg 80%
    21:00 +7°C° 0 mm 4 m/s 758 mmHg 85%
    22:00 +6°C° 0 mm 4 m/s 758 mmHg 89%
    23:00 +7°C° 0 mm 3 m/s 758 mmHg 90%

    23 Mai, Joi

    Timp Temperatura Precipitaţii Vânt Presiune Umiditate
    00:00 +7°C° 0 mm 3 m/s 758 mmHg 91%
    01:00 +5°C° 0 mm 3 m/s 758 mmHg 92%
    02:00 +5°C° 0 mm 3 m/s 758 mmHg 93%
    03:00 +5°C° 0 mm 3 m/s 758 mmHg 94%
    04:00 +5°C° 0 mm 3 m/s 758 mmHg 95%
    05:00 +8°C° 0 mm 3 m/s 758 mmHg 90%
    06:00 +8°C° 0 mm 4 m/s 758 mmHg 86%
    07:00 +10°C° 0 mm 4 m/s 758 mmHg 81%
    08:00 +12°C° 0 mm 4 m/s 758 mmHg 74%
    09:00 +13°C° 0 mm 4 m/s 758 mmHg 66%
    10:00 +14°C° 0 mm 5 m/s 758 mmHg 59%
    11:00 +15°C° 0 mm 5 m/s 758 mmHg 60%
    12:00 +15°C° 0 mm 6 m/s 758 mmHg 61%
    13:00 +15°C° 0 mm 6 m/s 758 mmHg 62%
    14:00 +15°C° 0 mm 6 m/s 758 mmHg 64%
    15:00 +15°C° 0 mm 6 m/s 757 mmHg 66%
    16:00 +14°C° 0 mm 6 m/s 757 mmHg 69%
    17:00 +14°C° 0 mm 5 m/s 757 mmHg 72%
    18:00 +13°C° 0 mm 4 m/s 757 mmHg 76%
    19:00 +13°C° 0 mm 3 m/s 756 mmHg 80%
    20:00 +12°C° 0 mm 3 m/s 756 mmHg 84%
    21:00 +11°C° 0 mm 3 m/s 756 mmHg 88%
    22:00 +9°C° 0 mm 2 m/s 756 mmHg 93%
    23:00 +9°C° 0 mm 2 m/s 755 mmHg 93%

    24 Mai, Vineri

    Timp Temperatura Precipitaţii Vânt Presiune Umiditate
    00:00 +9°C° 0 mm 3 m/s 755 mmHg 94%
    01:00 +9°C° 0 mm 3 m/s 755 mmHg 94%
    02:00 +9°C° 0 mm 3 m/s 754 mmHg 94%
    03:00 +8°C° 0 mm 3 m/s 754 mmHg 94%
    04:00 +8°C° 0 mm 3 m/s 753 mmHg 94%
    05:00 +9°C° 0.1 mm 3 m/s 753 mmHg 93%
    06:00 +10°C° 0.1 mm 3 m/s 753 mmHg 92%
    07:00 +11°C° 0.1 mm 3 m/s 752 mmHg 91%
    08:00 +12°C° 0.1 mm 3 m/s 752 mmHg 88%
    09:00 +13°C° 0.1 mm 3 m/s 752 mmHg 86%
    10:00 +14°C° 0.1 mm 3 m/s 751 mmHg 83%
    11:00 +16°C° 0 mm 3 m/s 751 mmHg 77%
    12:00 +17°C° 0 mm 3 m/s 750 mmHg 72%
    13:00 +17°C° 0 mm 3 m/s 750 mmHg 66%
    14:00 +17°C° 0 mm 3 m/s 749 mmHg 67%
    15:00 +17°C° 0 mm 3 m/s 749 mmHg 69%
    16:00 +17°C° 0 mm 3 m/s 749 mmHg 70%
    17:00 +16°C° 0.1 mm 3 m/s 748 mmHg 77%
    18:00 +15°C° 0.1 mm 2 m/s 748 mmHg 83%
    19:00 +14°C° 0.1 mm 2 m/s 748 mmHg 90%
    20:00 +13°C° 0.9 mm 2 m/s 748 mmHg 93%
    21:00 +12°C° 0.9 mm 2 m/s 748 mmHg 95%
    22:00 +12°C° 0.9 mm 1 m/s 748 mmHg 97%
    23:00 +12°C° 1.7 mm 2 m/s 748 mmHg 97%

    25 Mai, Sâmbătă

    Timp Temperatura Precipitaţii Vânt Presiune Umiditate
    00:00 +12°C° 1.7 mm 2 m/s 748 mmHg 97%
    01:00 +10°C° 1.7 mm 2 m/s 747 mmHg 98%
    02:00 +10°C° 0.8 mm 2 m/s 747 mmHg 97%
    03:00 +10°C° 0.8 mm 2 m/s 747 mmHg 97%
    04:00 +10°C° 0.8 mm 3 m/s 747 mmHg 97%
    05:00 +10°C° 0.1 mm 3 m/s 747 mmHg 96%
    06:00 +11°C° 0.1 mm 3 m/s 747 mmHg 95%
    07:00 +11°C° 0.1 mm 3 m/s 747 mmHg 94%
    08:00 +11°C° 0.2 mm 4 m/s 747 mmHg 93%
    09:00 +12°C° 0.2 mm 4 m/s 747 mmHg 91%
    10:00 +12°C° 0.2 mm 4 m/s 747 mmHg 90%
    11:00 +12°C° 0.3 mm 4 m/s 748 mmHg 89%
    12:00 +12°C° 0.3 mm 5 m/s 748 mmHg 89%
    13:00 +12°C° 0.3 mm 5 m/s 748 mmHg 88%
    14:00 +12°C° 0.1 mm 5 m/s 748 mmHg 85%
    15:00 +13°C° 0.1 mm 5 m/s 748 mmHg 83%
    16:00 +13°C° 0.1 mm 5 m/s 748 mmHg 80%
    17:00 +12°C° 0 mm 5 m/s 748 mmHg 83%
    18:00 +12°C° 0 mm 4 m/s 748 mmHg 85%
    19:00 +11°C° 0 mm 4 m/s 748 mmHg 88%
    20:00 +11°C° 0.1 mm 4 m/s 748 mmHg 90%
    21:00 +10°C° 0.1 mm 3 m/s 748 mmHg 93%
    22:00 +10°C° 0.1 mm 3 m/s 749 mmHg 95%
    23:00 +10°C° 0.2 mm 3 m/s 749 mmHg 95%
    Arată mai mult